User: anonymous   Login
Location: Franzen
(48.6167°N, 15.3833°E)
Time: 09:21:13
(UTC+00:00)
Language:

Meteor 2-3 Rocket - Orbit

View from above orbital plane
View from above orbital plane
View from above satellite
View from above satellite

Ground track
Ground track

The orbit data is extracted from the following two-line orbital elements,

1 10515U 77117B   21165.09141974 -.00000087  00000-0 -57829-4 0  9997
2 10515  81.2459 302.1819 0031799  86.6823 273.7984 14.08732135235069
Epoch (UTC): 14 June 2021 02:11:38
Eccentricity: 0.0031799
inclination: 81.2459°
perigee height: 840 km
apogee height: 887 km
right ascension of ascending node: 302.1819°
argument of perigee: 86.6823°
revolutions per day: 14.08732135
mean anomaly at epoch: 273.7984°
orbit number at epoch: 23506

The dashed part of the orbit path shows where the satellite is in the earth's shadow,  

DLR